| time (UTC) | temp C | wind direction | speed KPH | gust KPH | rain 1hr cm | rain 24hr cm | rain mn cm | humidity % | barometer mb |
| 20260905084503 | 23 | 146 | 3.2 | 0.0 | 0.00 | 0.00 | 0.00 | 90 | 1009.3 |
| 20260905083007 | 23 | 138 | 4.8 | 0.0 | 0.00 | 0.00 | 0.00 | 89 | 1009.4 |
| 20260905081603 | 23 | 128 | 4.8 | 0.0 | 0.00 | 0.00 | 0.00 | 88 | 1009.4 |
| 20260905080104 | 23 | 169 | 4.8 | 0.0 | 0.00 | 0.00 | 0.00 | 88 | 1009.4 |
| 20260905074606 | 23 | 159 | 4.8 | 0.0 | 0.00 | 0.00 | 0.00 | 87 | 1009.6 |
| 20260905073012 | 23 | 163 | 6.4 | 0.0 | 0.00 | 0.00 | 0.00 | 86 | 1009.8 |
| 20260905071618 | 23 | 171 | 6.4 | 0.0 | 0.00 | 0.00 | 0.00 | 85 | 1009.8 |
| 20260905070105 | 23 | 173 | 6.4 | 0.0 | 0.00 | 0.00 | 0.00 | 83 | 1009.8 |
| 20260905064604 | 24 | 176 | 4.8 | 0.0 | 0.00 | 0.00 | 0.00 | 81 | 1009.8 |
| 20260905063105 | 24 | 167 | 3.2 | 0.0 | 0.00 | 0.00 | 0.00 | 78 | 1009.8 |
| 20260905061517 | 24 | 155 | 4.8 | 0.0 | 0.00 | 0.00 | 0.00 | 77 | 1009.9 |
| 20260905060004 | 24 | 175 | 4.8 | 0.0 | 0.00 | 0.00 | 0.00 | 75 | 1010.0 |
| 20260905054608 | 25 | 146 | 3.2 | 0.0 | 0.00 | 0.00 | 0.00 | 74 | 1009.9 |
| 20260905051509 | 25 | 150 | 6.4 | 0.0 | 0.00 | 0.00 | 0.00 | 72 | 1009.9 |
| 20260905050105 | 25 | 142 | 4.8 | 0.0 | 0.00 | 0.00 | 0.00 | 72 | 1009.9 |
| 20260905044503 | 25 | 150 | 4.8 | 0.0 | 0.00 | 0.00 | 0.00 | 72 | 1009.9 |
| 20260905043104 | 25 | 119 | 3.2 | 0.0 | 0.00 | 0.00 | 0.00 | 73 | 1009.9 |
| 20260905041504 | 25 | 115 | 1.6 | 0.0 | 0.00 | 0.00 | 0.00 | 72 | 1010.0 |
| 20260905040006 | 25 | 126 | 3.2 | 0.0 | 0.00 | 0.00 | 0.00 | 72 | 1009.9 |
| 20260905034503 | 25 | 95 | 3.2 | 0.0 | 0.00 | 0.00 | 0.00 | 72 | 1010.0 |
| 20260905033006 | 25 | 140 | 3.2 | 0.0 | 0.00 | 0.00 | 0.00 | 72 | 1009.9 |
| 20260905031616 | 25 | 78 | 3.2 | 0.0 | 0.00 | 0.00 | 0.00 | 71 | 1009.7 |
| 20260905030011 | 26 | 78 | 4.8 | 0.0 | 0.00 | 0.00 | 0.00 | 69 | 1009.9 |
| 20260905023105 | 26 | 62 | 1.6 | 0.0 | 0.00 | 0.00 | 0.00 | 68 | 1009.3 |
| 20260905020006 | 26 | 65 | 1.6 | 0.0 | 0.00 | 0.00 | 0.00 | 67 | 1009.2 |
| 20260905014506 | 26 | 82 | 1.6 | 0.0 | 0.00 | 0.00 | 0.00 | 66 | 1009.1 |
| 20260905013009 | 25 | 77 | 1.6 | 0.0 | 0.00 | 0.00 | 0.00 | 67 | 1008.9 |
| 20260905011601 | 25 | 92 | 0.0 | 0.0 | 0.00 | 0.00 | 0.00 | 67 | 1009.0 |
| 20260905010004 | 26 | 92 | 0.0 | 0.0 | 0.00 | 0.00 | 0.00 | 67 | 1009.0 |
| 20260905004700 | 26 | 92 | 0.0 | 0.0 | 0.00 | 0.00 | 0.00 | 65 | 1009.1 |
| 20260905003003 | 27 | 92 | 0.0 | 0.0 | 0.00 | 0.00 | 0.00 | 64 | 1009.0 |
| 20260905001609 | 27 | 92 | 0.0 | 0.0 | 0.00 | 0.00 | 0.00 | 64 | 1008.8 |
| 20260905000006 | 27 | 140 | 0.0 | 0.0 | 0.00 | 0.00 | 0.00 | 64 | 1008.7 |
| 20260904233003 | 28 | 140 | 4.8 | 0.0 | 0.00 | 0.00 | 0.00 | 61 | 1008.3 |
| 20260904231603 | 29 | 111 | 4.8 | 0.0 | 0.00 | 0.00 | 0.00 | 62 | 1008.2 |
| 20260904230006 | 30 | 100 | 4.8 | 0.0 | 0.00 | 0.00 | 0.00 | 65 | 1007.9 |
| 20260904224605 | 28 | 123 | 4.8 | 0.0 | 0.00 | 0.00 | 0.00 | 68 | 1008.0 |
| 20260904223003 | 29 | 107 | 4.8 | 0.0 | 0.00 | 0.00 | 0.00 | 64 | 1008.4 |
| 20260904221505 | 30 | 142 | 4.8 | 0.0 | 0.00 | 0.00 | 0.00 | 66 | 1008.4 |
| 20260904220007 | 28 | 66 | 3.2 | 0.0 | 0.00 | 0.00 | 0.00 | 68 | 1008.5 |
| 20260904214613 | 27 | 98 | 1.6 | 0.0 | 0.00 | 0.00 | 0.00 | 71 | 1008.9 |
| 20260904211604 | 28 | 115 | 3.2 | 0.0 | 0.00 | 0.00 | 0.00 | 68 | 1009.0 |
| 20260904204507 | 28 | 65 | 4.8 | 0.0 | 0.00 | 0.00 | 0.00 | 66 | 1009.4 |
| 20260904203003 | 29 | 151 | 3.2 | 0.0 | 0.00 | 0.00 | 0.00 | 64 | 1009.5 |
| 20260904201504 | 28 | 121 | 4.8 | 0.0 | 0.00 | 0.00 | 0.00 | 64 | 1009.7 |
| 20260904200003 | 28 | 145 | 3.2 | 0.0 | 0.00 | 0.00 | 0.00 | 65 | 1009.6 |
| 20260904194612 | 28 | 157 | 4.8 | 0.0 | 0.00 | 0.00 | 0.00 | 66 | 1009.9 |
| 20260904191506 | 27 | 155 | 8.0 | 0.0 | 0.00 | 0.00 | 0.00 | 69 | 1010.3 |
| 20260904190002 | 28 | 174 | 6.4 | 0.0 | 0.00 | 0.00 | 0.00 | 64 | 1010.2 |
| 20260904184615 | 28 | 172 | 4.8 | 0.0 | 0.00 | 0.00 | 0.00 | 65 | 1010.3 |
| 20260904181525 | 28 | 175 | 8.0 | 0.0 | 0.00 | 0.00 | 0.00 | 65 | 1010.4 |
| 20260904180039 | 28 | 204 | 8.0 | 0.0 | 0.00 | 0.00 | 0.00 | 65 | 1010.5 |
| 20260904174521 | 28 | 215 | 6.4 | 0.0 | 0.00 | 0.00 | 0.00 | 64 | 1010.5 |
| 20260904173029 | 28 | 173 | 8.0 | 0.0 | 0.00 | 0.00 | 0.00 | 65 | 1010.9 |
| 20260904171539 | 28 | 167 | 8.0 | 0.0 | 0.00 | 0.00 | 0.00 | 65 | 1010.9 |
| 20260904170017 | 28 | 188 | 6.4 | 0.0 | 0.00 | 0.00 | 0.00 | 66 | 1011.0 |
| 20260904164517 | 28 | 140 | 4.8 | 0.0 | 0.00 | 0.00 | 0.00 | 67 | 1011.0 |
| 20260904163014 | 28 | 149 | 6.4 | 0.0 | 0.00 | 0.00 | 0.00 | 68 | 1011.0 |
| 20260904161513 | 27 | 184 | 9.7 | 0.0 | 0.00 | 0.00 | 0.00 | 70 | 1010.9 |
| 20260904160013 | 27 | 181 | 9.7 | 0.0 | 0.00 | 0.00 | 0.00 | 71 | 1010.7 |
| 20260904154522 | 27 | 102 | 6.4 | 0.0 | 0.00 | 0.00 | 0.00 | 71 | 1010.9 |
| 20260904153009 | 26 | 163 | 6.4 | 0.0 | 0.00 | 0.00 | 0.00 | 74 | 1010.7 |
| 20260904151510 | 27 | 192 | 8.0 | 0.0 | 0.00 | 0.00 | 0.00 | 72 | 1010.5 |
| 20260904150002 | 26 | 189 | 6.4 | 0.0 | 0.00 | 0.00 | 0.00 | 78 | 1010.7 |
| 20260904144501 | 25 | 179 | 9.7 | 0.0 | 0.00 | 0.00 | 0.00 | 80 | 1010.7 |
| 20260904143101 | 25 | 161 | 8.0 | 0.0 | 0.00 | 0.00 | 0.00 | 83 | 1010.6 |
| 20260904141559 | 25 | 153 | 8.0 | 0.0 | 0.00 | 0.00 | 0.00 | 84 | 1010.7 |
| 20260904140058 | 24 | 151 | 8.0 | 0.0 | 0.00 | 0.00 | 0.00 | 86 | 1010.6 |
| 20260904134602 | 23 | 181 | 9.7 | 0.0 | 0.00 | 0.00 | 0.00 | 88 | 1010.4 |
| 20260904133102 | 23 | 150 | 8.0 | 0.0 | 0.00 | 0.00 | 0.00 | 88 | 1010.2 |
| 20260904131556 | 23 | 154 | 9.7 | 0.0 | 0.00 | 0.00 | 0.00 | 89 | 1010.0 |
| 20260904130051 | 23 | 155 | 9.7 | 0.0 | 0.00 | 0.00 | 0.00 | 89 | 1009.8 |
| 20260904124551 | 23 | 165 | 8.0 | 0.0 | 0.00 | 0.00 | 0.00 | 90 | 1009.4 |
| 20260904123048 | 23 | 140 | 8.0 | 0.0 | 0.00 | 0.00 | 0.00 | 89 | 1009.2 |
| 20260904121547 | 23 | 168 | 6.4 | 0.0 | 0.00 | 0.00 | 0.00 | 89 | 1009.1 |
| 20260904120055 | 23 | 153 | 4.8 | 0.0 | 0.00 | 0.00 | 0.00 | 89 | 1009.0 |
| 20260904114548 | 23 | 159 | 4.8 | 0.0 | 0.00 | 0.00 | 0.00 | 88 | 1008.8 |
| 20260904113043 | 23 | 183 | 6.4 | 0.0 | 0.00 | 0.00 | 0.00 | 87 | 1008.5 |
| 20260904111540 | 23 | 196 | 9.7 | 0.0 | 0.00 | 0.00 | 0.00 | 87 | 1008.3 |
| 20260904110039 | 23 | 203 | 9.7 | 0.0 | 0.00 | 0.00 | 0.00 | 86 | 1008.3 |
| 20260904104602 | 23 | 180 | 8.0 | 0.0 | 0.00 | 0.00 | 0.00 | 86 | 1008.1 |
| 20260904103039 | 23 | 196 | 8.0 | 0.0 | 0.00 | 0.00 | 0.00 | 85 | 1008.2 |
| 20260904101541 | 23 | 173 | 11.3 | 0.0 | 0.00 | 0.00 | 0.00 | 85 | 1008.1 |
| 20260904100042 | 23 | 189 | 11.3 | 0.0 | 0.00 | 0.00 | 0.00 | 85 | 1008.1 |
| 20260904094549 | 23 | 186 | 11.3 | 0.0 | 0.00 | 0.00 | 0.00 | 86 | 1008.3 |
| 20260904093036 | 23 | 162 | 9.7 | 0.0 | 0.00 | 0.00 | 0.00 | 86 | 1008.3 |
| 20260904091535 | 23 | 184 | 11.3 | 0.0 | 0.00 | 0.00 | 0.00 | 86 | 1008.2 |
| 20260904090031 | 23 | 175 | 9.7 | 0.0 | 0.00 | 0.00 | 0.00 | 86 | 1008.2 |